CET,Max TemperatureF,Mean TemperatureF,Min TemperatureF,Max Dew PointF,MeanDew PointF,Min DewpointF,Max Humidity, Mean Humidity, Min Humidity, Max Sea Level PressureIn, Mean Sea Level PressureIn, Min Sea Level PressureIn, Max VisibilityMiles, Mean VisibilityMiles, Min VisibilityMiles, Max Wind SpeedMPH, Mean Wind SpeedMPH, Max Gust SpeedMPH,PrecipitationIn, CloudCover, Events, WindDirDegrees
2012-11-1,51,46,42,48,43,37,94,83,71,29.21,29.01,28.94,6,6,4,22,13,32,0.00,6,Rain,195
2012-11-2,51,46,41,43,39,37,100,82,62,29.47,29.33,29.18,6,6,4,20,13,31,0.00,6,Rain,212
2012-11-3,48,44,39,45,41,37,100,90,76,29.56,29.47,29.42,6,6,6,14,9,,0.00,6,Rain,201
2012-11-4,50,42,33,46,40,32,100,91,71,29.59,29.47,29.33,6,5,3,16,8,,0.00,6,Rain,174
2012-11-5,48,42,37,46,41,37,100,91,76,29.83,29.61,29.39,6,5,0,13,7,,0.00,6,Fog-Rain,257
2012-11-6,50,41,32,46,39,32,100,91,66,30.06,30.00,29.86,6,5,1,14,6,25,0.00,6,Rain,256
2012-11-7,50,48,46,50,47,43,100,93,76,30.24,30.19,30.06,6,4,1,13,8,,0.00,7,Rain-Thunderstorm,250
2012-11-8,51,50,48,46,45,43,93,83,76,30.18,30.06,30.01,6,6,3,13,9,23,0.00,8,Rain,242
2012-11-9,53,50,46,46,44,41,93,86,62,30.04,29.92,29.68,6,5,3,12,7,,0.00,8,Rain,186
2012-11-10,53,50,46,52,49,45,100,95,87,29.68,29.53,29.44,6,5,3,18,9,,0.00,7,Rain,180
2012-11-11,51,45,39,48,44,37,100,93,76,30.09,29.81,29.50,6,4,0,13,7,,0.00,5,Fog-Rain,221
2012-11-12,44,42,41,43,41,39,100,94,87,30.30,30.20,30.09,6,4,0,15,8,,0.00,7,Fog,202
2012-11-13,51,48,44,48,46,41,100,95,81,30.42,30.38,30.30,6,4,1,14,9,,0.00,8,Rain,188
2012-11-14,53,44,35,46,40,32,100,85,54,30.42,30.34,30.27,6,5,3,8,4,,0.00,7,,97
2012-11-15,42,38,33,43,37,34,100,90,76,30.27,30.21,30.15,5,3,0,8,4,23,0.00,7,Fog,141
2012-11-16,42,38,33,37,35,32,100,86,81,30.15,30.05,29.92,4,3,2,9,5,,0.00,7,,165
2012-11-17,46,40,33,46,39,32,100,97,87,29.92,29.82,29.77,6,3,1,12,6,,0.00,7,Rain,182
2012-11-18,50,40,30,48,43,30,100,98,76,30.06,29.91,29.80,6,2,0,9,4,,0.00,7,Fog-Rain,288
2012-11-19,50,40,30,50,43,30,100,100,93,30.04,29.98,29.95,3,1,0,9,4,,0.00,8,Fog-Snow,165
2012-11-20,53,48,42,50,47,41,100,94,82,30.01,29.99,29.98,6,5,2,14,9,,0.00,6,,171
2012-11-21,51,44,37,46,41,36,100,87,71,30.01,29.88,29.80,6,6,4,18,11,34,0.00,7,Rain,181
2012-11-22,51,46,41,45,42,41,100,87,67,30.15,30.07,30.01,6,6,6,18,12,,0.00,5,,193
2012-11-23,46,42,39,46,43,39,100,95,81,30.04,29.97,29.86,6,5,0,20,11,,0.00,8,Fog-Rain,196
2012-11-24,48,42,37,48,45,37,100,100,93,30.06,29.96,29.71,6,1,0,12,5,,0.00,8,Fog-Rain,99
2012-11-25,55,50,46,50,45,37,100,78,58,29.83,29.69,29.56,6,6,4,24,17,43,0.00,6,Rain,210
2012-11-26,53,47,41,46,43,39,93,85,71,29.80,29.62,29.53,6,6,4,16,10,,0.00,7,Rain,173
2012-11-27,48,44,39,43,42,39,100,94,76,29.71,29.63,29.53,6,5,1,10,6,,0.00,8,Rain,166
2012-11-28,48,40,32,45,40,32,100,95,71,29.74,29.72,29.68,6,5,0,10,3,,0.00,7,Fog-Rain-Thunderstorm,327
2012-11-29,44,36,28,41,37,28,100,90,70,29.74,29.71,29.68,6,6,6,12,8,,0.00,5,Rain,337
2012-11-30,44,35,26,39,32,27,100,96,61,29.89,29.80,29.74,6,4,0,9,3,,0.00,5,Fog,232